#timestamp,LO_Frequency,Hit,StdDev 
1571295615.2,286047003.4,N
1571295635.0,286047006.0,Y
1571295635.9,286047006.0,P
1571295655.7,286047002.3,N
1571295675.6,286047002.4,N
1571295695.4,286047002.0,N
1571295715.3,286046999.9,N
1571295735.1,286046999.8,N
1571295736.0,286046999.8,N
1571295755.8,286046999.8,N
1571295775.7,286046999.7,N
1571295795.5,286047002.1,N
1571295815.4,286046999.7,N
1571295835.2,286047000.2,N
1571295855.0,286047000.9,N
1571295855.9,286047000.9,N
1571295875.8,286047001.1,N
1571295895.6,286046998.1,N
1571295915.4,286047002.8,N
1571295935.3,286047000.4,N
1571295955.1,286047001.0,N
1571295975.9,286047000.7,N
1571295995.7,286047000.1,N
1571296015.5,286047002.4,N
1571296035.4,286047001.3,N
1571296055.2,286047002.4,N
1571296075.0,286047000.5,N
1571296075.9,286047000.5,N
1571296095.8,286046998.8,N
1571296115.6,286046999.3,N
1571296135.5,286047000.9,N
1571296155.3,286046998.4,N
1571296175.1,286047001.1,N
1571296195.9,286046999.9,N
1571296215.7,286047000.3,N
1571296235.5,286046998.1,N
1571296255.4,286047000.8,N
1571296275.2,286046999.3,N
1571296295.1,286047000.8,N
1571296296.0,286047000.8,N
1571296315.8,286047001.1,N
1571296335.6,286046998.7,N
1571296355.5,286046998.8,N
1571296375.3,286046999.2,N
1571296395.2,286046996.5,N
1571296415.9,286046998.1,N
1571296435.7,286046999.0,N
1571296455.6,286046999.0,N
1571296475.4,286046996.5,N
1571296495.2,286046999.1,N
1571296515.1,286046999.0,N
1571296516.0,286046999.0,N
1571296535.8,286046998.7,N
1571296555.7,286047001.2,N
1571296575.5,286047001.2,N
1571296595.3,286046999.0,N
1571296615.2,286046999.2,N
1571296635.0,286046999.5,N
1571296635.9,286046999.5,N
1571296655.7,286046999.2,N
1571296675.6,286046998.4,N
1571296695.4,286046999.6,N
1571296715.3,286046995.0,Y
1571296735.1,286046999.0,P
1571296755.8,286046998.4,P
1571296775.7,286046996.9,P
1571296795.5,286046998.2,N
1571296815.4,286047000.4,N
1571296835.2,286046999.5,N
1571296855.0,286047001.1,N
1571296855.9,286047001.1,N
1571296875.8,286047000.3,N
1571296895.6,286047000.5,N
1571296915.4,286046999.4,N
1571296935.3,286046997.7,N
1571296955.1,286046995.6,Y
1571296975.9,286046995.6,P
1571296995.7,286046994.9,N
1571297015.5,286046993.9,P
1571297035.4,286046993.6,Y
1571297055.2,286046997.2,P
1571297075.0,286046998.3,N
1571297076.0,286046998.3,N
1571297095.8,286046998.8,N
1571297115.6,286047000.4,N
1571297135.5,286046999.4,N
1571297155.3,286046998.3,N
1571297175.1,286046998.9,N
1571297195.9,286047000.4,N
1571297215.7,286047002.7,N
1571297235.5,286047001.1,N
1571297255.4,286047002.3,N
1571297275.2,286047000.2,N
1571297295.1,286047001.7,N
1571297296.0,286047001.7,N
1571297315.8,286047007.4,Y
1571297335.6,286047006.9,P
1571297355.5,286047004.2,N
1571297375.3,286047002.2,N
1571297395.2,286046999.9,N
1571297415.9,286047000.4,N
1571297435.7,286047002.4,N
1571297455.6,286047002.2,N
1571297475.4,286047003.6,N
1571297495.2,286047003.7,N
1571297515.1,286047005.6,N
1571297516.0,286047005.6,N
1571297535.8,286047003.1,N
1571297555.7,286047003.1,N
1571297575.5,286047004.2,N
1571297595.3,286047001.5,N
1571297615.2,286047002.2,N
1571297635.0,286047004.1,N
1571297635.9,286047004.1,N
1571297655.8,286047002.0,N
1571297675.6,286047001.7,N
1571297695.4,286047003.9,N
1571297715.3,286047001.8,N
1571297735.1,286046998.2,N
1571297755.9,286046996.6,N
1571297775.7,286046997.3,N
1571297795.5,286046996.9,N
1571297815.4,286046997.0,N
1571297835.2,286046997.9,N
1571297855.0,286047001.2,N
1571297855.9,286047001.2,N
1571297875.8,286047000.0,N
1571297895.6,286046998.9,N
1571297915.5,286047000.3,N
1571297935.3,286046999.9,N
1571297955.1,286047002.6,N
1571297975.9,286047001.9,N
1571297995.7,286046999.8,N
1571298015.6,286047005.5,N
1571298035.4,286047006.2,N
1571298055.2,286047004.8,N
1571298075.1,286047008.6,Y
1571298076.0,286047008.6,P
1571298095.8,286047006.8,N
1571298115.7,286047007.6,N
1571298135.5,286047007.2,N
1571298155.3,286047007.2,N
1571298175.2,286047005.9,N
1571298195.0,286047004.4,N
1571298195.9,286047004.4,N
1571298215.8,286047003.1,N
1571298235.6,286047003.7,N
1571298255.4,286047003.2,N
1571298275.3,286047001.8,N
1571298295.1,286047004.2,N
1571298315.8,286047001.9,N
1571298335.7,286047002.0,N
1571298355.5,286047002.4,N
1571298375.4,286047001.8,N
1571298395.2,286047004.3,N
1571298415.0,286047003.8,N
1571298415.9,286047003.8,N
1571298435.8,286047003.0,N
1571298455.6,286047001.5,N
1571298475.4,286047002.5,N
1571298495.3,286047003.5,N
1571298515.1,286047005.4,N
1571298535.9,286047005.7,N
1571298555.7,286047007.1,Y
1571298575.5,286046998.5,P
1571298595.4,286046998.2,N
1571298615.2,286047000.6,N
1571298635.1,286046998.4,N
1571298636.0,286046998.4,N
1571298655.8,286046996.5,N
1571298675.6,286046998.0,N
1571298695.5,286046997.1,N
1571298715.3,286047011.9,Y
1571298735.1,286046998.3,P
1571298755.9,286046999.9,N
1571298775.7,286047001.1,N
1571298795.6,286046999.9,N
1571298815.4,286046998.4,N
1571298835.2,286046999.3,N
1571298855.1,286046999.3,N
1571298856.0,286046999.3,N
1571298875.8,286047000.8,N
1571298895.6,286046999.7,N
1571298915.5,286047002.0,N
1571298935.3,286047004.1,Y
1571298955.2,286047001.7,P
1571298975.0,286047000.0,N
1571298975.9,286047000.0,N
1571298995.7,286047002.0,N
1571299015.6,286047002.8,N
1571299035.4,286047000.7,N
1571299055.3,286047000.5,N
1571299075.1,286047003.5,Y
1571299076.0,286047003.5,P
1571299095.8,286046999.9,N
1571299115.7,286046998.9,N
1571299135.5,286047000.9,N
1571299155.3,286046999.5,N
1571299175.2,286046998.3,N
1571299195.0,286046999.6,N
1571299195.9,286046999.6,N
